W7YP Weather Reports


time (UTC)temp
C
wind
direction
speed
KPH
gust
KPH
rain 1hr
cm
rain 24hr
cm
rain mn
cm
humidity
%
barometer
mb
20260902235214 11 51 0.0 6.4 0.33 0.84 0.84 93 1011.5
20260902234710 11 341 1.6 12.9 0.28 0.79 0.79 93 1011.6
20260902234209 11 178 3.2 12.9 0.23 0.74 0.74 93 1011.6
20260902233704 11 137 1.6 9.7 0.20 0.69 0.71 93 1011.4
20260902233205 11 261 0.0 9.7 0.18 0.66 0.66 93 1011.4
20260902232705 11 56 1.6 11.3 0.18 0.64 0.64 93 1011.2
20260902232206 11 171 1.6 11.3 0.20 0.61 0.61 93 1011.4
20260902231705 11 260 1.6 19.3 0.20 0.58 0.58 92 1011.4
20260902231427 11 162 3.2 20.9 0.20 0.56 0.56 92 1011.4
20260902230706 11 179 6.4 20.9 0.20 0.53 0.53 92 1011.2
20260902230201 11 223 3.2 25.7 0.25 0.53 0.53 92 1011.0
20260902225700 11 169 6.4 25.7 0.25 0.51 0.51 92 1011.1
20260902225201 11 168 4.8 17.7 0.30 0.51 0.51 92 1010.9
20260902224701 11 0 6.4 25.7 0.38 0.51 0.51 92 1010.6
20260902224201 11 42 6.4 25.7 0.46 0.51 0.51 92 1010.7
20260902223701 11 152 6.4 22.5 0.46 0.48 0.48 92 1010.7
20260902223201 11 169 4.8 27.4 0.46 0.48 0.48 92 1010.6
20260902222657 11 263 4.8 29.0 0.43 0.46 0.46 92 1010.3
20260902222157 12 37 8.0 29.0 0.41 0.41 0.41 92 1010.2
20260902221656 12 152 8.0 30.6 0.38 0.38 0.38 92 1010.2
20260902221157 12 327 9.7 30.6 0.36 0.36 0.36 92 1009.9
20260902220657 12 310 9.7 27.4 0.33 0.33 0.33 91 1009.7
20260902220157 12 101 11.3 29.0 0.28 0.28 0.30 91 1009.5
20260902215657 12 263 12.9 29.0 0.25 0.25 0.25 90 1009.5
20260902215157 12 342 9.7 33.8 0.20 0.20 0.20 89 1009.7
20260902214700 12 49 6.4 33.8 0.10 0.10 0.13 88 1009.2
20260902214419 13 241 12.9 29.0 0.05 0.05 0.05 86 1009.3
20260902213652 13 74 12.9 27.4 0.03 0.03 0.03 84 1009.2
20260902213153 13 207 12.9 38.6 0.03 0.03 0.03 83 1009.3
20260902212915 15 344 9.7 38.6 0.03 0.03 0.03 81 1009.0
20260902212509 15 342 11.3 35.4 0.00 0.00 0.00 77 1008.2
20260902212402 16 150 14.5 38.6 0.00 0.00 0.00 73 1008.5
20260902211149 16 205 11.3 41.8 0.00 0.00 0.00 70 1008.2
20260902210905 17 322 14.5 41.8 0.00 0.00 0.00 67 1007.9
20260902210143 18 339 6.4 45.1 0.00 0.00 0.00 62 1007.2
20260902205644 19 242 9.7 45.1 0.00 0.00 0.00 59 1007.4
20260902205144 20 54 9.7 27.4 0.00 0.00 0.00 56 1007.4
20260902204908 21 321 4.8 20.9 0.00 0.00 0.00 55 1007.1
20260902204144 22 326 4.8 20.9 0.00 0.00 0.00 53 1007.1
20260902203900 22 342 1.6 11.3 0.00 0.00 0.00 53 1006.9
20260902203405 22 33 4.8 12.9 0.00 0.00 0.00 51 1007.0
20260902202640 22 71 3.2 12.9 0.00 0.00 0.00 51 1006.9
20260902202140 22 214 3.2 17.7 0.00 0.00 0.00 51 1006.8
20260902201904 22 24 4.8 17.7 0.00 0.00 0.00 53 1007.0
20260902201136 22 348 1.6 25.7 0.00 0.00 0.00 52 1007.0
20260902200636 22 183 6.4 25.7 0.00 0.00 0.00 50 1006.8
20260902200136 22 134 0.0 9.7 0.00 0.00 0.00 51 1006.8
20260902195635 22 209 3.2 9.7 0.00 0.00 0.00 49 1006.8
20260902195136 22 26 1.6 17.7 0.00 0.00 0.00 50 1006.9
20260902194859 23 325 0.0 17.7 0.00 0.00 0.00 50 1007.0
20260902194136 23 11 1.6 14.5 0.00 0.00 0.00 48 1007.1
20260902193632 23 326 1.6 12.9 0.00 0.00 0.00 47 1007.3
20260902193127 23 5 3.2 12.9 0.00 0.00 0.00 48 1007.3
20260902192621 23 240 1.6 16.1 0.00 0.00 0.00 49 1007.3
20260902192122 23 339 4.8 16.1 0.00 0.00 0.00 47 1007.4
20260902191622 23 200 1.6 19.3 0.00 0.00 0.00 51 1007.4
20260902191123 23 111 3.2 19.3 0.00 0.00 0.00 51 1007.4
20260902190617 23 167 3.2 11.3 0.00 0.00 0.00 52 1007.6
20260902190113 23 53 1.6 8.0 0.00 0.00 0.00 50 1007.6
20260902185603 22 279 0.0 11.3 0.00 0.00 0.00 50 1007.6
20260902185103 22 184 1.6 12.9 0.00 0.00 0.00 52 1007.7
20260902185045 22 334 4.8 12.9 0.00 0.00 0.00 52 1007.8
20260902184105 22 293 1.6 14.5 0.00 0.00 0.00 54 1007.6
20260902183604 22 220 1.6 14.5 0.00 0.00 0.00 53 1007.7
20260902183104 22 33 4.8 14.5 0.00 0.00 0.00 50 1007.7
20260902182559 22 30 0.0 4.8 0.00 0.00 0.00 56 1007.7
20260902182059 22 33 0.0 6.4 0.00 0.00 0.00 54 1007.8
20260902181559 22 36 0.0 11.3 0.00 0.00 0.00 53 1007.8
20260902181059 22 328 1.6 11.3 0.00 0.00 0.00 54 1007.8
20260902180554 21 350 0.0 9.7 0.00 0.00 0.00 55 1007.8
20260902180057 21 301 1.6 8.0 0.00 0.00 0.00 57 1007.8
20260902175550 21 148 0.0 3.2 0.00 0.00 0.00 56 1007.8
20260902175050 21 88 0.0 1.6 0.00 0.00 0.00 57 1007.8
20260902174550 21 89 0.0 3.2 0.00 0.00 0.00 56 1007.8
20260902174314 21 88 0.0 3.2 0.00 0.00 0.00 58 1007.8
20260902173551 21 88 0.0 4.8 0.00 0.00 0.00 57 1007.9
20260902173050 20 88 0.0 6.4 0.00 0.00 0.00 58 1007.9
20260902172546 20 81 0.0 6.4 0.00 0.00 0.00 60 1008.0
20260902172036 20 57 0.0 4.8 0.00 0.00 0.00 58 1008.0
20260902171752 20 57 0.0 4.8 0.00 0.00 0.00 57 1008.0
20260902171253 20 159 0.0 3.2 0.00 0.00 0.00 60 1008.0
20260902170537 20 154 0.0 4.8 0.00 0.00 0.00 63 1008.2
20260902170036 20 148 0.0 4.8 0.00 0.00 0.00 62 1008.1
20260902165753 19 179 0.0 6.4 0.00 0.00 0.00 64 1008.1
20260902165011 19 88 0.0 1.6 0.00 0.00 0.00 66 1008.2
20260902164506 19 87 0.0 1.6 0.00 0.00 0.00 67 1008.2
20260902164006 19 86 0.0 1.6 0.00 0.00 0.00 68 1008.2
20260902163507 18 86 0.0 1.6 0.00 0.00 0.00 70 1008.1
20260902163225 18 87 0.0 1.6 0.00 0.00 0.00 70 1008.1
20260902162507 18 92 0.0 3.2 0.00 0.00 0.00 69 1008.2
20260902162010 17 91 0.0 3.2 0.00 0.00 0.00 69 1008.2
20260902161503 17 298 0.0 3.2 0.00 0.00 0.00 71 1008.2
20260902161003 17 296 0.0 0.0 0.00 0.00 0.00 75 1008.2
20260902160503 16 296 0.0 0.0 0.00 0.00 0.00 75 1008.2
20260902160004 16 296 0.0 0.0 0.00 0.00 0.00 76 1008.1
20260902155501 16 296 0.0 0.0 0.00 0.00 0.00 75 1008.3
20260902155220 16 296 0.0 0.0 0.00 0.00 0.00 77 1008.3
20260902154717 15 296 0.0 0.0 0.00 0.00 0.00 76 1008.5
20260902153949 15 296 0.0 1.6 0.00 0.00 0.00 78 1008.5
20260902153444 15 297 0.0 0.0 0.00 0.00 0.00 76 1008.6
20260902152944 15 297 0.0 0.0 0.00 0.00 0.00 80 1008.7
20260902152447 15 297 0.0 0.0 0.00 0.00 0.00 79 1008.7
20260902151944 14 297 0.0 0.0 0.00 0.00 0.00 80 1008.8
20260902151925 13 297 0.0 0.0 0.00 0.00 0.00 81 1008.9
20260902150944 13 297 0.0 0.0 0.00 0.00 0.00 82 1008.9
20260902150442 13 297 0.0 0.0 0.00 0.00 0.00 87 1009.0
20260902145940 13 297 0.0 3.2 0.00 0.00 0.00 88 1009.0
20260902145440 12 297 0.0 3.2 0.00 0.00 0.00 93 1009.1
20260902145204 12 300 0.0 0.0 0.00 0.00 0.00 94 1009.1
20260902144438 12 300 0.0 0.0 0.00 0.00 0.00 94 1009.1
20260902143935 12 300 0.0 0.0 0.00 0.00 0.00 94 1009.1
20260902143431 12 300 0.0 0.0 0.00 0.00 0.00 93 1009.1
20260902142931 12 300 0.0 0.0 0.00 0.00 0.00 93 1009.2
20260902142434 11 300 0.0 0.0 0.00 0.00 0.00 93 1009.3
20260902141931 11 300 0.0 0.0 0.00 0.00 0.00 93 1009.2
20260902141431 11 300 0.0 0.0 0.00 0.00 0.00 93 1009.3
20260902141200 11 300 0.0 0.0 0.00 0.00 0.00 93 1009.3
20260902140426 11 300 0.0 0.0 0.00 0.00 0.00 92 1009.2
20260902135917 11 300 0.0 0.0 0.00 0.00 0.00 91 1009.2
20260902135412 11 300 0.0 0.0 0.00 0.00 0.00 91 1009.3
20260902134902 11 300 0.0 0.0 0.00 0.00 0.00 90 1009.3
20260902134356 10 300 0.0 0.0 0.00 0.00 0.00 90 1009.3
20260902133856 10 300 0.0 0.0 0.00 0.00 0.00 90 1009.5
20260902133357 10 300 0.0 0.0 0.00 0.00 0.00 89 1009.3
20260902132857 10 300 0.0 0.0 0.00 0.00 0.00 89 1009.3
20260902132353 10 300 0.0 0.0 0.00 0.00 0.00 89 1009.5
20260902131852 11 300 0.0 0.0 0.00 0.00 0.00 88 1009.5
20260902131355 11 300 0.0 0.0 0.00 0.00 0.00 88 1009.5
20260902130833 11 300 0.0 0.0 0.00 0.00 0.00 88 1009.6
20260902130332 11 300 0.0 0.0 0.00 0.00 0.00 88 1009.6
20260902125828 11 300 0.0 0.0 0.00 0.00 0.00 88 1009.6
20260902125305 11 300 0.0 0.0 0.00 0.00 0.00 88 1009.7
20260902124804 11 300 0.0 0.0 0.00 0.00 0.00 88 1009.6
20260902124303 11 300 0.0 0.0 0.00 0.00 0.00 87 1009.6
20260902123801 11 300 0.0 0.0 0.00 0.00 0.00 87 1009.6
20260902123259 11 300 0.0 0.0 0.00 0.00 0.00 87 1009.6
20260902123022 11 300 0.0 0.0 0.00 0.00 0.00 87 1009.5
20260902122305 11 300 0.0 0.0 0.00 0.00 0.00 86 1009.5
20260902121759 11 300 0.0 0.0 0.00 0.00 0.00 86 1009.5
20260902121746 11 300 0.0 0.0 0.00 0.00 0.00 86 1009.6
20260902121018 11 300 0.0 0.0 0.00 0.00 0.00 86 1009.6
20260902120459 11 300 0.0 0.0 0.00 0.00 0.00 85 1009.6
20260902115725 11 300 0.0 0.0 0.00 0.00 0.00 86 1009.6
20260902115219 11 300 0.0 0.0 0.00 0.00 0.00 85 1009.7
20260902114705 11 300 0.0 0.0 0.00 0.00 0.00 85 1009.7
20260902114159 12 300 0.0 0.0 0.00 0.00 0.00 85 1009.7
20260902113655 12 300 0.0 0.0 0.00 0.00 0.00 84 1009.8
20260902113155 12 300 0.0 0.0 0.00 0.00 0.00 84 1009.8
20260902112908 12 300 0.0 0.0 0.00 0.00 0.00 84 1009.9
20260902112145 12 300 0.0 0.0 0.00 0.00 0.00 84 1010.0
20260902111643 12 300 0.0 0.0 0.00 0.00 0.00 83 1010.1
20260902111400 12 300 0.0 0.0 0.00 0.00 0.00 83 1010.1
20260902110625 12 300 0.0 0.0 0.00 0.00 0.00 83 1010.1
20260902110121 12 300 0.0 0.0 0.00 0.00 0.00 83 1010.1
20260902105838 12 300 0.0 0.0 0.00 0.00 0.00 83 1010.2
20260902105124 12 300 0.0 0.0 0.00 0.00 0.00 83 1010.2
20260902104621 12 300 0.0 0.0 0.00 0.00 0.00 82 1010.3
20260902104116 13 300 0.0 0.0 0.00 0.00 0.00 82 1010.3
20260902103620 13 300 0.0 0.0 0.00 0.00 0.00 82 1010.5
20260902103059 13 300 0.0 0.0 0.00 0.00 0.00 82 1010.5
20260902102557 13 300 0.0 0.0 0.00 0.00 0.00 82 1010.5
20260902102057 13 300 0.0 0.0 0.00 0.00 0.00 82 1010.3
20260902101557 13 300 0.0 0.0 0.00 0.00 0.00 82 1010.3
20260902101317 13 300 0.0 0.0 0.00 0.00 0.00 83 1010.5
20260902100553 13 300 0.0 0.0 0.00 0.00 0.00 83 1010.6
20260902100055 13 300 0.0 0.0 0.00 0.00 0.00 84 1010.6
20260902095552 13 300 0.0 0.0 0.00 0.00 0.00 84 1010.6
20260902095053 13 300 0.0 0.0 0.00 0.00 0.00 84 1010.7
20260902094811 13 300 0.0 0.0 0.00 0.00 0.00 83 1010.7
20260902094043 13 300 0.0 0.0 0.00 0.00 0.00 84 1010.7
20260902093536 13 300 0.0 1.6 0.00 0.00 0.00 84 1010.8
20260902093255 13 300 0.0 1.6 0.00 0.00 0.00 83 1010.8
20260902092519 13 300 0.0 0.0 0.00 0.00 0.00 83 1010.6
20260902092023 13 300 0.0 0.0 0.00 0.00 0.00 83 1010.5
20260902091519 13 300 0.0 0.0 0.00 0.00 0.00 84 1010.7
20260902091027 13 300 0.0 0.0 0.00 0.00 0.00 84 1010.7
20260902090520 13 300 0.0 0.0 0.00 0.00 0.00 83 1010.9
20260902090031 13 300 0.0 0.0 0.00 0.00 0.00 83 1011.0
20260902085510 13 300 0.0 0.0 0.00 0.00 0.00 83 1011.0
20260902085017 13 300 0.0 0.0 0.00 0.00 0.00 85 1010.9
20260902084510 13 300 0.0 0.0 0.00 0.00 0.00 85 1011.0
20260902084239 13 300 0.0 3.2 0.00 0.00 0.00 86 1011.0
20260902083501 13 300 0.0 3.2 0.00 0.00 0.00 85 1010.9
20260902083002 13 300 0.0 0.0 0.00 0.00 0.00 84 1011.0
20260902082500 13 300 0.0 0.0 0.00 0.00 0.00 83 1010.9
20260902081957 13 300 0.0 0.0 0.00 0.00 0.00 84 1010.9
20260902081450 13 300 0.0 0.0 0.00 0.00 0.00 83 1010.9
20260902080952 13 300 0.0 0.0 0.00 0.00 0.00 84 1010.9
20260902080451 14 300 0.0 0.0 0.00 0.00 0.00 84 1010.7
20260902080216 14 300 0.0 0.0 0.00 0.00 0.00 84 1010.9
20260902075453 14 300 0.0 0.0 0.00 0.00 0.00 83 1010.9
20260902074951 14 300 0.0 0.0 0.00 0.00 0.00 83 1011.1
20260902074446 14 300 0.0 0.0 0.00 0.00 0.00 83 1011.1
20260902074208 14 300 0.0 0.0 0.00 0.00 0.00 83 1011.1
20260902073448 14 300 0.0 0.0 0.00 0.00 0.00 83 1011.2
20260902072947 14 300 0.0 0.0 0.00 0.00 0.00 82 1011.2
20260902072706 14 300 0.0 0.0 0.00 0.00 0.00 83 1011.1
20260902071934 14 300 0.0 0.0 0.00 0.00 0.00 82 1011.2
20260902071427 14 300 0.0 0.0 0.00 0.00 0.00 82 1011.2
20260902070930 14 300 0.0 0.0 0.00 0.00 0.00 80 1011.4
20260902070911 14 300 0.0 0.0 0.00 0.00 0.00 80 1011.4
20260902065929 15 300 0.0 0.0 0.00 0.00 0.00 78 1011.2
20260902065654 15 300 0.0 0.0 0.00 0.00 0.00 76 1011.4
20260902065154 15 300 0.0 0.0 0.00 0.00 0.00 75 1011.4
20260902064635 15 300 0.0 0.0 0.00 0.00 0.00 76 1011.2
20260902063920 15 300 0.0 0.0 0.00 0.00 0.00 75 1011.4
20260902063422 15 300 0.0 0.0 0.00 0.00 0.00 76 1011.4
20260902063138 15 300 0.0 0.0 0.00 0.00 0.00 76 1011.4
20260902062419 15 300 0.0 0.0 0.00 0.00 0.00 75 1011.5
20260902061921 16 300 0.0 0.0 0.00 0.00 0.00 73 1011.4
20260902061414 16 300 0.0 0.0 0.00 0.00 0.00 76 1011.4
20260902060915 16 300 0.0 0.0 0.00 0.00 0.00 73 1011.5
20260902060410 16 300 0.0 0.0 0.00 0.00 0.00 72 1011.5
20260902060352 16 300 0.0 0.0 0.00 0.00 0.00 72 1011.6
20260902055845 16 300 0.0 0.0 0.00 0.00 0.00 71 1011.6
20260902054856 17 300 0.0 0.0 0.00 0.00 0.00 69 1011.6
20260902054350 17 300 0.0 1.6 0.00 0.00 0.00 68 1011.6
20260902053848 17 300 0.0 1.6 0.00 0.00 0.00 66 1011.6
20260902053348 17 300 0.0 0.0 0.00 0.00 0.00 64 1011.6
20260902052848 18 300 0.0 0.0 0.00 0.00 0.00 62 1011.7
20260902052341 18 300 0.0 0.0 0.00 0.00 0.00 61 1011.7
20260902052057 18 300 0.0 1.6 0.00 0.00 0.00 61 1011.7
20260902051337 18 300 0.0 1.6 0.00 0.00 0.00 60 1011.8
20260902051100 19 227 0.0 1.6 0.00 0.00 0.00 56 1011.8
20260902050336 19 227 0.0 3.2 0.00 0.00 0.00 55 1011.7
20260902045840 19 225 0.0 11.3 0.00 0.00 0.00 55 1011.8
20260902045322 19 218 0.0 11.3 0.00 0.00 0.00 54 1011.8
20260902044825 20 169 0.0 6.4 0.00 0.00 0.00 59 1011.7
20260902044548 20 159 0.0 12.9 0.00 0.00 0.00 51 1011.7
20260902043821 20 122 0.0 12.9 0.00 0.00 0.00 53 1011.8
20260902043318 20 76 0.0 0.0 0.00 0.00 0.00 52 1011.8
20260902042820 20 76 0.0 1.6 0.00 0.00 0.00 52 1011.8
20260902042319 20 76 0.0 9.7 0.00 0.00 0.00 49 1011.7
20260902041817 20 40 0.0 16.1 0.00 0.00 0.00 52 1011.7
20260902041308 21 320 0.0 16.1 0.00 0.00 0.00 48 1011.6
20260902040806 21 164 0.0 9.7 0.00 0.00 0.00 47 1011.7
20260902040304 21 313 1.6 9.7 0.00 0.00 0.00 47 1011.7
20260902035806 21 338 0.0 22.5 0.00 0.00 0.00 47 1011.7
20260902035520 21 209 1.6 22.5 0.00 0.00 0.00 45 1011.7
20260902034802 21 22 1.6 19.3 0.00 0.00 0.00 46 1011.7
20260902034254 21 323 6.4 19.3 0.00 0.00 0.00 45 1011.6
20260902033756 21 178 6.4 19.3 0.00 0.00 0.00 45 1011.6
20260902033255 21 261 3.2 19.3 0.00 0.00 0.00 46 1011.7
20260902032757 21 5 3.2 11.3 0.00 0.00 0.00 47 1011.5
20260902032255 21 304 0.0 14.5 0.00 0.00 0.00 47 1011.4
20260902031757 21 333 1.6 19.3 0.00 0.00 0.00 46 1011.2
20260902031735 21 130 3.2 19.3 0.00 0.00 0.00 46 1011.1
20260902031015 20 33 3.2 19.3 0.00 0.00 0.00 46 1010.9
20260902030241 20 34 1.6 16.1 0.00 0.00 0.00 48 1010.9
20260902025742 20 283 1.6 16.1 0.00 0.00 0.00 51 1010.8
20260902025243 20 222 1.6 19.3 0.00 0.00 0.00 52 1010.6
20260902024743 20 207 0.0 19.3 0.00 0.00 0.00 51 1010.6
20260902024241 19 121 1.6 14.5 0.00 0.00 0.00 51 1010.5
20260902023738 18 296 1.6 14.5 0.00 0.00 0.00 55 1010.3
20260902023231 18 329 0.0 12.9 0.00 0.00 0.00 58 1010.3
20260902022733 17 28 3.2 17.7 0.00 0.00 0.00 60 1010.1
20260902022227 17 317 1.6 20.9 0.00 0.00 0.00 65 1009.9
20260902021952 16 318 3.2 20.9 0.00 0.00 0.00 65 1009.8
20260902021227 16 345 0.0 6.4 0.00 0.00 0.00 79 1009.7
20260902020729 16 127 0.0 3.2 0.00 0.00 0.00 80 1009.2
20260902020228 16 127 0.0 3.2 0.00 0.00 0.00 78 1009.2
20260902015722 16 127 0.0 3.2 0.00 0.00 0.00 77 1009.2
20260902015218 17 126 0.0 0.0 0.00 0.00 0.00 77 1009.2
20260902014719 17 126 0.0 0.0 0.00 0.00 0.00 75 1009.3
20260902014215 17 126 0.0 0.0 0.00 0.00 0.00 75 1009.2
20260902013920 17 126 0.0 0.0 0.00 0.00 0.00 73 1009.3
20260902013818 17 126 0.0 0.0 0.00 0.00 0.00 74 1009.3
20260902012717 18 126 0.0 0.0 0.00 0.00 0.00 72 1009.2
20260902012214 18 126 0.0 0.0 0.00 0.00 0.00 70 1009.3
20260902011710 18 126 0.0 0.0 0.00 0.00 0.00 68 1009.3
20260902011423 19 126 0.0 0.0 0.00 0.00 0.00 67 1009.3
20260902010931 20 126 0.0 0.0 0.00 0.00 0.00 67 1009.2
20260902010202 20 126 0.0 0.0 0.00 0.00 0.00 67 1009.2
20260902005931 20 126 0.0 0.0 0.00 0.00 0.00 65 1009.2
20260902005154 21 126 0.0 0.0 0.00 0.00 0.00 63 1009.3
20260902004655 21 126 0.0 0.0 0.00 0.00 0.00 62 1009.2
20260902004354 22 126 0.0 0.0 0.00 0.00 0.00 64 1009.3
20260902003624 22 126 0.0 0.0 0.00 0.00 0.00 63 1009.2
20260902003124 22 126 0.0 0.0 0.00 0.00 0.00 61 1009.2
20260902002627 23 126 0.0 0.0 0.00 0.00 0.00 60 1009.2
20260902002342 23 126 0.0 0.0 0.00 0.00 0.00 59 1009.3
20260902001610 23 126 0.0 0.0 0.00 0.00 0.00 60 1009.5
20260902001109 23 126 0.0 0.0 0.00 0.00 0.00 62 1009.5
20260902000610 23 126 0.0 0.0 0.00 0.00 0.00 62 1009.6
20260902000110 24 126 0.0 0.0 0.00 0.00 0.00 63 1009.7
20260901235610 24 126 0.0 0.0 0.00 0.00 0.00 66 1009.7